User: anonymous   Login
Location: Mentone
(34.5413°N, 85.5351°W)
Time: 18:18:04
(UTC-05:00)
Language:

Centaur AC-72 - Orbit

View from above orbital plane
View from above orbital plane
View from above satellite
View from above satellite

Ground track
Ground track

The orbit data is extracted from the following two-line orbital elements,

1 21907U 92013B   17115.34972981 -.00000214 +00000-0 +00000-0 0  9990
2 21907 019.4156 286.6559 6950620 120.2234 306.6131 02.25610047207017
Epoch (UTC): 25 April 2017 08:23:36
Eccentricity: 0.6950620
inclination: 19.4156°
perigee height: 1110 km
apogee height: 35246 km
right ascension of ascending node: 286.6559°
argument of perigee: 120.2234°
revolutions per day: 2.25610047
mean anomaly at epoch: 306.6131°
orbit number at epoch: 20701

The dashed part of the orbit path shows where the satellite is in the earth's shadow,  

DLR